IRIDIUM 152 (43479 NORAD) Tracking and Keplerian Element Data

This shows tracking and keplerian element data for the satellite.

Feedback or suggestion? Click here.




ElementValue
Catalog43479
NameIRIDIUM 152
Epoch Orbit417
Epoch Day171.61494733
Epoch Year2018
RAAN228.0293
Inclination86.3987
Eccentricity0.0002422
Argument of Perigee84.5786
Mean Anonmoly275.5686
Mean Motion14.34217095
Decay Rate5.3E-07
L11 43479U 18047D 18171.61494733 .00000053 00000-0 11728-4 0 9993
L22 43479 86.3987 228.0293 0002422 84.5786 275.5686 14.34217095 4171

Live tracking and technical data element details for IRIDIUM 152 (NORAD 43479). IRIDIUM 152 can be tracked NOW for your location showing map with azimuth and elevation plus other details from your city location.

Track the satellite on the map from your city or location and see movement details for azimuth, elevation, latitude, longitude, range, height, and movement on the map or in text.







IsCatalogInMostPopularTable: catalog: 43479, numindb: 20
Update: records affected: 1



GetName: 43479 IRIDIUM 152

Hit Count: updated at: Fri, 20 Jul 2018 06:57:55 GMT